Location: Asheville, NC
(35.6000°N, 82.5500°W)
Time: 09:14:48
(UTC-05:00)

STRAND 1 - Pass Details

Date: 04 January 2018
Orbit: 768 x 782 km, 98.5° (Epoch: 20 January)

Event Time Altitude Azimuth Distance (km) Brightness Sun altitude
Exits shadow 20:14:55 19° 195° (SSW) 1,773 ? -32.7°
Drops below altitude 10° 20:16:18 10° 195° (SSW) 2,312 ? -32.9°
Sets 20:18:36 0° 195° (SSW) 3,237 ? -33.4°
